[[[{"header":{"parameterUnit":"kt","parameterCategory":2,"dx":1,"dy":1,"la1":30.253999710083008,"la2":30.299108505249023,"lo1":-89.0895004272461,"lo2":-89.04439544677734,"nx":28,"ny":28,"refTime":"2022-10-06T21:00:00:Z","depth":0,"parameterNumber":1,"parameterNumberName":"U-component_of_WINDS"},"data":[1.2711,1.2786,1.2829,1.2934,1.299,1.3069,1.311,1.3169,1.3226,1.3324,1.3388,1.3438,1.3511,1.3597,1.3668,1.3689,1.3716,1.3711,1.3736,1.3721,1.3722,1.3722,1.3708,1.3716,1.3716,1.3746,1.3747,1.3747,1.2693,1.2749,1.2818,1.2913,1.2972,1.3002,1.308,1.3127,1.3196,1.3268,1.3333,1.3423,1.35,1.3577,1.3658,1.3693,1.3712,1.3711,1.371,1.3721,1.3706,1.369,1.3695,1.3695,1.3695,1.3695,1.3695,1.3695,1.2672,1.2716,1.2799,1.2874,1.2934,1.2997,1.3046,1.3108,1.3175,1.3265,1.3303,1.3383,1.3462,1.3581,1.3631,1.3694,1.3702,1.3716,1.3719,1.3721,1.3718,1.3667,1.371,1.371,1.371,1.371,1.371,0,1.2671,1.2704,1.2773,1.2855,1.2912,1.298,1.3049,1.308,1.3165,1.3217,1.3296,1.3348,1.3452,1.3531,1.3616,1.3667,1.3704,1.3713,1.3723,1.3705,1.3678,1.3692,1.3666,1.3712,1.3712,1.3712,1.3712,1.3712,1.2653,1.2699,1.2808,1.285,1.2899,1.2967,1.3016,1.3088,1.3137,1.3233,1.3267,1.3348,1.3416,1.3535,1.3606,1.3684,1.3703,1.3716,1.3715,1.3696,1.3703,1.3699,1.3704,1.3714,1.3714,1.3714,1.3714,0,1.2638,1.271,1.2796,1.2899,1.2927,1.2971,1.3059,1.3106,1.3161,1.3233,1.3254,1.3341,1.3417,1.3488,1.3589,1.3624,1.3696,1.3713,1.3669,1.3676,1.3694,1.3691,1.3743,1.3753,1.3745,1.3745,1.3745,0,1.2651,1.2709,1.2812,1.2859,1.2925,1.2997,1.3061,1.3115,1.3186,1.3244,1.3298,1.335,1.3433,1.3495,1.3547,1.3619,1.3638,1.3669,1.3681,1.3664,1.366,1.3691,1.369,1.371,1.3709,1.3709,1.3709,0,1.2621,1.2745,1.2821,1.286,1.2977,1.3011,1.3061,1.3142,1.319,1.3263,1.3295,1.3375,1.3419,1.3479,1.3544,1.3541,1.3634,1.3644,1.3666,1.3664,1.3683,1.3681,1.3709,1.3708,1.3708,1.3708,1.3708,0,1.2642,1.2716,1.2815,1.2914,1.2944,1.2994,1.3078,1.3137,1.3218,1.3254,1.3313,1.3358,1.3427,1.3431,1.3528,1.3505,1.3545,1.3581,1.3584,1.3595,1.3597,1.3603,1.3622,1.3627,1.3604,1.3603,1.3602,0,1.2587,1.2708,1.2771,1.2864,1.2929,1.2986,1.3043,1.3114,1.3167,1.3229,1.3288,1.3358,1.3377,1.3409,1.3447,1.351,1.354,1.3509,1.3597,1.3599,1.3573,1.3592,1.3577,1.361,1.3592,1.3593,1.3594,0,1.2554,1.2698,1.271,1.2759,1.2866,1.2921,1.2986,1.3073,1.3111,1.3185,1.3241,1.3343,1.3361,1.3413,1.3459,1.3495,1.3522,1.351,1.3513,1.3509,1.3593,1.3578,1.3584,1.3544,1.3546,1.3547,1.3586,0,1.257,1.264,1.2676,1.2783,1.2837,1.29,1.2978,1.3024,1.3063,1.3118,1.3202,1.328,1.3368,1.3394,1.3432,1.3493,1.3494,1.3513,1.3522,1.3534,1.3548,1.3555,1.3494,1.3494,1.3495,1.3496,0,0,1.2499,1.2602,1.2671,1.2738,1.2788,1.2848,1.2908,1.2963,1.3074,1.3107,1.3113,1.3268,1.3331,1.3425,1.3435,1.3471,1.3489,1.3483,1.3528,1.3531,1.3534,1.3548,1.3554,1.3497,1.3497,1.3497,1.3497,0,1.2521,1.2586,1.2645,1.2706,1.2799,1.2856,1.2869,1.2972,1.3011,1.3094,1.3143,1.3202,1.3325,1.3386,1.3432,1.3473,1.3506,1.3494,1.349,1.3531,1.3534,1.3536,1.355,1.3554,1.3499,1.3499,1.3499,0,1.2502,1.2579,1.2616,1.2734,1.2796,1.2862,1.2891,1.296,1.301,1.3072,1.3155,1.3209,1.3297,1.3376,1.3415,1.3421,1.3517,1.3501,1.3499,1.3505,1.3549,1.3552,1.3555,1.3522,1.3521,1.3521,0,0,1.2511,1.2577,1.2682,1.2745,1.278,1.2865,1.2909,1.2953,1.3031,1.3062,1.3133,1.3207,1.3279,1.3325,1.3397,1.3473,1.3497,1.3501,1.35,1.3499,1.3504,1.3547,1.355,1.352,1.352,1.352,0,0,1.2515,1.264,1.2666,1.2748,1.2821,1.2929,1.2964,1.2998,1.3071,1.3072,1.315,1.3173,1.3249,1.33,1.3279,1.3401,1.3409,1.3416,1.3365,1.3365,1.3364,1.335,1.332,0,0,0,0,0,1.2578,1.2624,1.2646,1.2672,1.2822,1.2916,1.2936,1.3001,1.3005,1.3031,1.3095,1.3128,1.3304,1.3287,1.3311,1.3335,1.3509,1.3511,1.3513,1.3466,1.3465,1.3464,0,0,0,0,0,0,1.2589,1.262,1.2646,1.2754,1.2788,1.2915,1.2936,1.2955,1.3004,1.3009,1.3115,1.3132,1.3189,1.3279,1.33,1.3321,1.3313,1.3509,1.3511,1.3513,1.3465,1.3464,1.3464,0,0,0,0,0,1.2598,1.2623,1.2847,1.2754,1.2784,1.2881,1.2935,1.2951,1.299,1.309,1.3108,1.3035,1.3188,1.321,1.3292,1.331,1.3299,1.3306,1.3511,1.3512,1.3513,1.3465,0,0,0,0,0,0,1.2604,1.2638,1.2855,1.2866,1.2742,1.2876,1.2899,1.2947,1.3069,1.3087,1.3013,1.3016,1.3187,1.3205,1.3221,1.3302,1.3288,1.3295,1.33,1.3512,1.3513,1.3514,0,0,0,0,0,0,1.2625,1.2647,1.286,1.2842,1.2852,1.287,1.2891,1.297,1.307,1.2986,1.2992,1.3013,1.3163,1.3201,1.3214,1.3336,1.3279,1.3286,1.3291,1.3295,1.3512,1.3513,0,0,0,0,0,0,1.2636,1.2655,1.2839,1.2847,1.2855,1.2989,1.2942,1.3092,1.3054,1.2979,1.3052,1.3051,1.3158,1.3173,1.3209,1.3325,1.3333,1.3279,1.3284,1.3288,1.329,0,0,0,0,0,0,0,1.2644,1.25,1.2786,1.2851,1.2859,1.2972,1.2975,1.2979,1.3054,1.3053,1.3052,1.3052,1.3238,1.3246,1.3254,1.3316,0,0,1.3279,1.3282,0,0,0,0,0,0,0,0,1.2494,1.2499,1.2787,1.2789,1.2791,1.2973,1.2975,1.2978,1.3053,1.3053,1.3052,1.3052,1.324,1.3246,1.3253,0,0,0,0,0,0,0,0,0,0,0,0,0,0,0,1.2787,1.2789,0,1.2973,1.2975,1.2977,1.3053,1.3053,1.3053,1.3052,1.3242,1.3247,1.3252,0,0,0,0,0,0,0,0,0,0,0,0,0,0,0,0,0,0,0,0,0,0,0,0,0,0,0,0,0,0,0,0,0,0,0,0,0,0,0,0,0,0,0,0,0,0,0,0,0,0,0,0,0,0,0,0,0,0,0,0,0,0,0,0,0,0,0,0,0]}],[{"header":{"parameterUnit":"kt","parameterCategory":2,"dx":1,"dy":1,"la1":30.253999710083008,"la2":30.299108505249023,"lo1":-89.0895004272461,"lo2":-89.04439544677734,"nx":28,"ny":28,"refTime":"2022-10-06T21:00:00:Z","depth":0,"parameterNumber":2,"parameterNumberName":"V-component_of_WINDS"},"data":[4.5136,4.5127,4.5121,4.5107,4.5098,4.5087,4.5081,4.5072,4.5062,4.5047,4.5036,4.5027,4.5013,4.4996,4.4983,4.4979,4.4973,4.4976,4.497,4.4967,4.4966,4.4965,4.4967,4.4975,4.4975,4.4974,4.4974,4.4974,4.5136,4.5129,4.512,4.5106,4.5098,4.5092,4.508,4.5073,4.5062,4.505,4.5039,4.5024,4.501,4.4994,4.4978,4.4972,4.4967,4.4968,4.4968,4.4966,4.4962,4.4965,4.4973,4.4973,4.4973,4.4973,4.4973,4.4973,4.5136,4.513,4.5119,4.5108,4.5099,4.509,4.5083,4.5072,4.5062,4.5046,4.5039,4.5025,4.501,4.4986,4.4976,4.4964,4.496,4.4958,4.4958,4.4957,4.4959,4.4962,4.4961,4.496,4.496,4.496,4.496,0,4.5133,4.5128,4.5118,4.5107,4.5099,4.5088,4.5077,4.5073,4.5057,4.5048,4.5035,4.5025,4.5006,4.4991,4.4974,4.4962,4.4952,4.495,4.4948,4.4952,4.4959,4.4955,4.495,4.4949,4.4949,4.4949,4.4949,4.4949,4.5131,4.5126,4.5109,4.5104,4.5096,4.5086,4.5078,4.5065,4.5056,4.5039,4.5034,4.5019,4.5007,4.4984,4.4968,4.4952,4.4946,4.4947,4.4943,4.4948,4.4946,4.4946,4.4945,4.4948,4.4948,4.4948,4.4948,0,4.5131,4.512,4.5108,4.5092,4.5087,4.5081,4.5066,4.5059,4.5048,4.5036,4.5033,4.5015,4.5,4.4984,4.4963,4.4955,4.4942,4.4937,4.4948,4.4946,4.4945,4.4945,4.4944,4.4943,4.4935,4.4936,4.4936,0,4.5125,4.5118,4.5101,4.5095,4.5086,4.5072,4.5063,4.5053,4.5039,4.503,4.5017,4.5008,4.4988,4.4976,4.4963,4.495,4.4946,4.4938,4.4935,4.4939,4.494,4.4932,4.4932,4.4928,4.4928,4.4928,4.4928,0,4.5126,4.5107,4.5098,4.5091,4.5071,4.5066,4.5057,4.5042,4.5034,4.502,4.5014,4.4998,4.4989,4.4976,4.496,4.4959,4.4944,4.4937,4.4935,4.4936,4.4932,4.4932,4.4937,4.4928,4.4928,4.4928,4.4928,0,4.5119,4.5108,4.5095,4.5078,4.5073,4.5066,4.5051,4.5041,4.5025,4.5017,4.5005,4.4994,4.4981,4.4977,4.4958,4.4961,4.4952,4.4944,4.4943,4.494,4.4935,4.4939,4.4946,4.4946,4.4939,4.4939,4.4939,0,4.5123,4.5106,4.5095,4.5082,4.5072,4.5059,4.505,4.5037,4.5026,4.5014,4.5001,4.4987,4.498,4.4973,4.4966,4.4951,4.4948,4.4951,4.4931,4.4931,4.4937,4.4943,4.4948,4.4947,4.494,4.494,4.494,0,4.5124,4.5101,4.5099,4.5092,4.5073,4.5063,4.5053,4.5037,4.503,4.5016,4.5006,4.4985,4.4979,4.4967,4.4955,4.4949,4.4949,4.4943,4.4942,4.4944,4.4939,4.4944,4.4944,4.4943,4.4942,4.4942,4.494,0,4.5116,4.5106,4.5101,4.5083,4.5074,4.5064,4.5048,4.504,4.5031,4.5019,4.5004,4.4986,4.4967,4.4962,4.4951,4.4942,4.4941,4.4934,4.4927,4.4931,4.493,4.4929,4.493,4.493,4.493,4.4929,0,0,4.5123,4.5107,4.5094,4.5084,4.5075,4.5061,4.5053,4.5042,4.5019,4.5013,4.5009,4.4977,4.4962,4.4944,4.4944,4.4936,4.4932,4.4931,4.4929,4.4929,4.4929,4.4928,4.4928,4.4929,4.4929,4.4929,4.4929,0,4.5116,4.5105,4.5098,4.5087,4.507,4.5058,4.5056,4.5035,4.5027,4.5012,4.4998,4.4986,4.4959,4.4945,4.4935,4.4934,4.4922,4.4929,4.4935,4.4927,4.4928,4.4928,4.4927,4.4927,4.4928,4.4928,4.4928,0,4.5115,4.5101,4.5096,4.5075,4.5063,4.5052,4.5043,4.5031,4.5022,4.5003,4.4988,4.4975,4.4954,4.4939,4.4932,4.4928,4.4914,4.4914,4.4915,4.4914,4.4905,4.4906,4.4907,4.49,4.49,4.49,0,0,4.5111,4.5101,4.5081,4.5073,4.5066,4.5048,4.504,4.503,4.5013,4.5006,4.4989,4.4972,4.4956,4.4946,4.493,4.4916,4.491,4.4912,4.4913,4.4914,4.4913,4.4905,4.4906,4.49,4.49,4.49,0,0,4.5108,4.5086,4.508,4.5068,4.5054,4.5032,4.5026,4.5018,4.5002,4.5001,4.498,4.4974,4.496,4.4947,4.4949,4.4927,4.492,4.4919,4.4936,4.4937,4.4938,4.4941,4.4933,0,0,0,0,0,4.5094,4.5089,4.5084,4.508,4.5052,4.5035,4.5031,4.5016,4.5012,4.5009,4.4993,4.4981,4.4944,4.4945,4.494,4.4937,4.4899,4.4899,4.4899,4.4917,4.4919,4.492,0,0,0,0,0,0,4.5092,4.5087,4.5084,4.5062,4.5055,4.5035,4.5026,4.5022,4.5012,4.5011,4.4985,4.498,4.4965,4.4947,4.4942,4.494,4.4935,4.4899,4.4899,4.4899,4.4918,4.4919,4.492,0,0,0,0,0,4.509,4.5086,4.5046,4.5062,4.5056,4.5034,4.5026,4.5022,4.5015,4.499,4.4985,4.5004,4.4965,4.496,4.4944,4.4943,4.4938,4.4936,4.4899,4.4899,4.4899,4.4918,0,0,0,0,0,0,4.5089,4.5082,4.5045,4.5042,4.5062,4.5035,4.5031,4.5023,4.4994,4.4989,4.5007,4.5006,4.4966,4.4962,4.4958,4.4945,4.4941,4.4939,4.4938,4.4899,4.4899,4.4899,0,0,0,0,0,0,4.5084,4.508,4.5044,4.5045,4.5043,4.5036,4.5032,4.5015,4.4993,4.5013,4.5011,4.5007,4.497,4.4962,4.4959,4.4933,4.4942,4.4941,4.494,4.4939,4.4899,4.4899,0,0,0,0,0,0,4.5082,4.5078,4.5046,4.5044,4.5042,4.5014,4.502,4.4992,4.4998,4.5014,4.4998,4.4998,4.4971,4.4968,4.4961,4.4936,4.4934,4.4942,4.4941,4.4941,4.494,0,0,0,0,0,0,0,4.508,4.5108,4.5059,4.5043,4.5041,4.5021,4.502,4.5019,4.4998,4.4998,4.4998,4.4998,4.4952,4.495,4.4948,4.4938,0,0,4.4943,4.4942,0,0,0,0,0,0,0,0,4.5109,4.5108,4.5059,4.5059,4.5058,4.5021,4.502,4.5019,4.4998,4.4998,4.4998,4.4998,4.4951,4.495,4.4948,0,0,0,0,0,0,0,0,0,0,0,0,0,0,0,4.5059,4.5059,0,4.502,4.502,4.502,4.4998,4.4998,4.4998,4.4998,4.4951,4.495,4.4948,0,0,0,0,0,0,0,0,0,0,0,0,0,0,0,0,0,0,0,0,0,0,0,0,0,0,0,0,0,0,0,0,0,0,0,0,0,0,0,0,0,0,0,0,0,0,0,0,0,0,0,0,0,0,0,0,0,0,0,0,0,0,0,0,0,0,0,0,0]}]]]